Regional Weather Roundup
Issued by NWS

Home | Current Version | Previous Version | Text Only | Print | Product List | Glossary Off
Versions: 1 2 3 4 5 6 7 8 9 10 11 12 13 14 15 16 17 18 19 20 21 22 23 24 25 26 27 28 29 30 31 32 33 34 35 36 37 38 39 40 41 42 43 44 45 46 47 48 49 50

000
ASUS43 KMPX 271201
RWRMN
WEATHER ROUNDUP FOR MINNESOTA
NATIONAL WEATHER SERVICE TWIN CITIES/CHANHASSEN MN
700 AM CDT MON MAR 27 2017


NOTE: "FAIR" INDICATES FEW OR NO CLOUDS BELOW 12,000 FEET WITH NO
SIGNIFICANT WEATHER AND/OR OBSTRUCTIONS TO VISIBILITY. N/A MEANS
CURRENT SKY AND/OR WEATHER CONDITIONS ARE NOT AVAILABLE.

MNZ060>063-068>070-271300-
   Twin Cities Metro

CITY           SKY/WX    TMP DP  RH WIND       PRES   REMARKS
TWIN CITIES    CLOUDY    38  33  82 N5        29.96S
6HR MIN TEMP:  37; 6HR MAX TEMP:  39; 6HR PCP: TRACE;

ST PAUL        CLOUDY    37  36  96 N5        29.98R
CRYSTAL        CLOUDY    38  33  82 N7        29.95S
BLAINE         CLOUDY    37  37 100 NW6       29.96S
LAKEVILLE      CLOUDY    36  36 100 N3        29.96R
EDEN PRAIRIE   CLOUDY    39  34  82 N5        29.95S
6HR MIN TEMP:  39; 6HR MAX TEMP:  40;

SOUTH ST PAUL  CLOUDY    37  36  94 N5        29.97R
LAKE ELMO      MIX PCPN  36  36 100 NW3       29.97R
$$
MNZ001>005-007-008-013>017-022>024-027-028-271300-
   Northwest Minnesota

CITY           SKY/WX    TMP DP  RH WIND       PRES   REMARKS
BEMIDJI        FOG       31  31 100 CALM      29.95R VSB<1/4
HALLOCK        FOG       30  28  93 E5        29.97F VSB 1/4 WCI  25
ROSEAU         CLEAR     28  25  86 CALM      29.97R FOG
WARROAD        CLOUDY    27  21  80 CALM      29.97R FOG
THIEF RVR FALL FOG       28  28 100 W3        29.99R VSB 1/4
CROOKSTON      FOG       32  32 100 CALM      29.99R VSB 1/4
FOSSTON        CLOUDY    28  27  93 CALM      29.97R FOG
DETROIT LAKES  CLOUDY    34  34 100 CALM      29.96R FOG
MOORHEAD       MOCLDY    34  32  93 CALM      29.97S FOG
PARK RAPIDS    CLOUDY    34  30  85 CALM      29.94R
MAHNOMEN       FAIR      31  31  99 CALM      29.96R FOG
$$
MNZ006-009>011-018-025>026-271300-
   North Central Minnesota

CITY           SKY/WX    TMP DP  RH WIND       PRES   REMARKS
BAUDETTE       FOG       28  27  96 CALM      29.96R VSB 1/4
FLAG ISLAND    CLOUDY    28  27  93 NW5       29.97R WCI  23
INTL FALLS     PTCLDY    25  21  85 CALM      29.96R
6HR MIN TEMP:  25; 6HR MAX TEMP:  29;

WASKISH        PTCLDY    27  27 100 CALM      29.97R
BIG FORK       CLEAR     28  27  93 CALM      29.96R
LONGVILLE      CLOUDY    34  30  86 CALM      29.95R
GRAND RAPIDS   CLOUDY    32  30  92 CALM      29.97R
CRANE LAKE     CLEAR     25  23  93 CALM      29.98R
ORR            CLEAR     27  25  93 CALM      29.94R
COOK           CLOUDY    28  27  93 CALM      29.95S
WALKER         CLOUDY    34  31  90 CALM      29.95R
$$
MNZ012-019>021-037-271300-
   Northeast Minnesota

CITY           SKY/WX    TMP DP  RH WIND       PRES   REMARKS
DULUTH         CLOUDY    33  32  96 NW8       29.94R WCI  26
6HR MIN TEMP:  31; 6HR MAX TEMP:  33;

ELY            CLOUDY    30  28  93 CALM      29.94R
HIBBING        MOCLDY    29  29 100 CALM      29.94R
EVELETH        CLOUDY    32  31  96 CALM      29.95S
DULUTH HARBOR  PTCLDY    34  32  93 CALM      29.97S
TWO HARBORS    CLOUDY    36  30  80 CALM      29.92R
SILVER BAY     CLOUDY    34  34 100 CALM      29.92S
GRAND MARAIS     N/A     34  33  96 CALM      29.95R
G MARAIS ARPRT CLOUDY    32  27  80 N3        29.92R
$$
MNZ029>031-032-039>041-046>048-054>057-064-271300-
   West Central Minnesota

CITY           SKY/WX    TMP DP  RH WIND       PRES   REMARKS
FERGUS FALLS   CLOUDY    34  34 100 CALM      29.99S
WHEATON        CLOUDY    34  32  93 CALM      29.99S FOG
MORRIS         CLOUDY    34  34 100 CALM      29.95R FOG
ALEXANDRIA     MOCLDY    33  32  96 CALM      29.95S FOG
ELBOW LAKE     FAIR      32  32 100 CALM      29.96S FOG
WADENA         CLOUDY    32  30  93 CALM      29.95S
GLENWOOD       CLOUDY    36  36 100 N3        29.95S
APPLETON       CLOUDY    36  34  93 CALM      29.95S
BENSON         CLOUDY    34  30  86 CALM      29.97S FOG
ORTONVILLE     CLOUDY    34  32  93 CALM      29.96R FOG
MADISON        CLOUDY    37  37 100 NE3       29.95S FOG
WILLMAR        MOCLDY    32  32 100 CALM      29.98R FOG
$$
MNZ033>034-036-042>043-049>051-058-059-271300-
   Central Minnesota

CITY           SKY/WX    TMP DP  RH WIND       PRES   REMARKS
ST CLOUD       PTCLDY    33  33 100 CALM      29.96S FOG
6HR MIN TEMP:  33; 6HR MAX TEMP:  37;

SAUK CENTRE    FAIR      32  32  99 CALM      29.95S FOG
PAYNESVILLE      N/A     33  33 100 CALM      29.96R FOG
AITKIN         PTCLDY    34  28  80 CALM      29.94R
PINE RIVER     CLOUDY    32  30  93 CALM      29.99R
BRAINERD       CLOUDY    32  31  96 CALM      29.95S
STAPLES        MOCLDY    34  32  93 CALM      29.95S
LONG PRAIRIE   FAIR      32  32 100 CALM      29.95S FOG
LITTLE FALLS   CLOUDY    32  32 100 CALM      29.96S
LITCHFIELD     CLOUDY    36  36 100 CALM      29.96S
BUFFALO        CLOUDY    37  35  92 CALM      29.97S
MAPLE LAKE     FOG       35  35  99 CALM      29.97S VSB 3/4
HUTCHINSON     CLOUDY    37  37  97 CALM      29.97R
$$
MNZ037-044-045-052-053-271300-
   East Central Minnesota

CITY           SKY/WX    TMP DP  RH WIND       PRES   REMARKS
PRINCETON      FOG       34  34 100 CALM      29.96S VSB 1/2
MORA           FOG       32  32 100 CALM      29.97F VSB 1/4
CAMBRIDGE      PTCLDY    37  34  87 CALM      29.94F FOG
RUSH CITY      CLOUDY    34  33  95 CALM      29.95F FOG
MOOSE LAKE     CLOUDY    32  30  93 CALM      29.93F FOG
CLOQUET        CLOUDY    30  30 100 CALM      29.94S
MCGREGOR       CLOUDY    32  30  93 CALM      29.95R
$$
MNZ071>073-080-081-089-090-097-098-271300-
   Southwest Minnesota

CITY           SKY/WX    TMP DP  RH WIND       PRES   REMARKS
MONTEVIDEO     CLOUDY    36  36 100 E3        29.97F
GRANITE FALLS  PTCLDY    37  36  96 CALM      29.98S FOG
CANBY          CLOUDY    35  35  99 CALM      29.96F FOG
MARSHALL       CLOUDY    38  36  92 S3        29.96S
REDWOOD FALLS  CLOUDY    39  35  86 N3        29.96R
OLIVIA         CLOUDY    36  34  93 CALM      29.96S
PIPESTONE      CLOUDY    36  34  93 CALM      29.94S
WINDOM         CLOUDY    39  37  93 CALM      29.96R
WORTHINGTON    CLOUDY    34  33  96 CALM      29.96R
JACKSON        CLOUDY    37  37 100 NW3       29.96S
TRACY          CLOUDY    40  38  92 NW5       29.96R
SLAYTON        CLOUDY    37  36  93 W3        29.95S
$$
MNZ065>067-074>077-082>085-091>093-271300-
   South Central Minnesota

CITY           SKY/WX    TMP DP  RH WIND       PRES   REMARKS
MANKATO        CLOUDY    38  36  92 NE6       29.97R
NEW ULM        CLOUDY    37  36  93 CALM      29.96R
ST JAMES       CLOUDY    37  36  93 CALM      29.97S
FAIRMONT       CLOUDY    38  37  97 N3        29.96S
GLENCOE        CLOUDY    38  38 100 CALM      29.96R
FARIBAULT      CLOUDY    37  36  93 NW3       29.97R
OWATONNA       CLOUDY    37  36  93 CALM      29.96S FOG
WASECA         CLOUDY    36  36 100 N5        29.97S
ALBERT LEA     CLOUDY    37  37 100 NW5       29.94F FOG
$$
MNZ078>079-086>088-094>096-271300-
   Southeast Minnesota

CITY           SKY/WX    TMP DP  RH WIND       PRES   REMARKS
ROCHESTER      CLOUDY    37  37 100 NW6       29.94S FOG
6HR MIN TEMP:  37; 6HR MAX TEMP:  38; 6HR PCP: TRACE;

RED WING       CLOUDY    37  37 100 CALM      29.96R
STANTON        CLOUDY    37  36  93 CALM      29.96R FOG
DODGE CENTER   CLOUDY    37  36  93 NW5       29.95S FOG
WINONA         CLOUDY    37  37 100 NW5       29.96R FOG
AUSTIN         CLOUDY    37  37 100 N6        29.94F FOG
PRESTON        CLOUDY    37  37  97 NW7       29.94S FOG
$$
ABBREVIATIONS USED IN REMARKS
   TC - TEMPERATURES IN CELSIUS
  WCI - WIND CHILL INDEX
   HX - HEAT INDEX
  VSB - VISIBILITY
$$




USA.gov is the U.S. government's official web portal to all federal, state and local government web resources and services.